Weather History for La Porte, IN

Change the Weather History Date:

Thursday, February 7, 2013

  Actual Average (KVPZ) Record (KVPZ)
Temperature  
Mean Temperature 30 °F 25 °F  
Max Temperature 38 °F 33 °F 55 °F (2009)
Min Temperature 23 °F 18 °F -8 °F (2014)
Degree Days  
Heating Degree Days 34 40  
Month to date heating degree days 282  
Since 1 July heating degree days 3967  
Cooling Degree Days 0 0  
Month to date cooling degree days 0  
Year to date cooling degree days 0  
Moisture  
Dew Point 28 °F    
Average Humidity 85    
Maximum Humidity 100    
Minimum Humidity 68    
Precipitation  
Precipitation 0.06 in 0.05 in 0.33 in (2005)
Month to date precipitation 0.32  
Year to date precipitation 2.07  
Sea Level Pressure  
Sea Level Pressure 29.98 in    
Wind  
Wind Speed 6 mph (East)    
Max Wind Speed 12 mph    
Max Gust Speed 17 mph    
Visibility 4 miles    
Events Rain , Snow    
T = Trace of Precipitation, MM = Missing Value Source: NWS Daily Summary

Daily Weather History Graph

Daily Weather History Graph

Search for Another Location

Airport:

Trip Planner

Search our weather history database for the weather conditions in past years. The results will help you decide how hot, cold, wet, or windy it might be!

Date:

Astronomy

Feb. 07, 2013 Rise Set
Actual Time 6:51 AM CST 5:10 PM CST
Civil Twilight 6:23 AM CST 5:39 PM CST
Nautical Twilight 5:50 AM CST 6:12 PM CST
Astronomical Twilight 5:17 AM CST 6:44 PM CST
Moon 4:32 AM CST (2/7) 2:33 PM CST (2/7)
Length of Visible Light 11h 16m
Length of Day
10h 18m
Waning Crescent, 9% of the Moon is Illuminated
Feb 7
Waning Crescent
Feb 10
New
Feb 17
First Quarter
Feb 25
Full
Mar 4
Last Quarter

Hourly Weather History & Observations

Time (CST) Temp. Windchill Dew Point Humidity Pressure Visibility Wind Dir Wind Speed Gust Speed Precip Events Conditions
12:35 AM 30.2 °F 23.4 °F 25.3 °F 82% 30.13 in 7.0 mi SSE 6.9 mph - N/A   Clear
12:55 AM 30.0 °F - 25.5 °F 83% 30.14 in 7.0 mi Calm Calm - N/A   Scattered Clouds
1:15 AM 29.3 °F - 25.0 °F 84% 30.14 in 7.0 mi Calm Calm - N/A   Scattered Clouds
1:35 AM 27.9 °F 24.0 °F 23.9 °F 85% 30.14 in 7.0 mi SE 3.5 mph - N/A   Clear
1:55 AM 26.6 °F 22.6 °F 23.0 °F 86% 30.14 in 5.0 mi ESE 3.5 mph - N/A   Scattered Clouds
2:15 AM 23.9 °F 18.0 °F 21.0 °F 89% 30.14 in 5.0 mi ESE 4.6 mph - N/A   Scattered Clouds
2:35 AM 25.7 °F 20.1 °F 23.4 °F 91% 30.14 in 5.0 mi ESE 4.6 mph - N/A   Clear
2:55 AM 26.4 °F 19.8 °F 23.7 °F 90% 30.12 in 5.0 mi ESE 5.8 mph - N/A   Clear
3:15 AM 26.8 °F 20.2 °F 24.1 °F 90% 30.12 in 5.0 mi ESE 5.8 mph - N/A   Scattered Clouds
3:35 AM 27.7 °F 20.4 °F 24.8 °F 89% 30.12 in 5.0 mi ESE 6.9 mph - N/A   Overcast
3:55 AM 28.0 °F 20.8 °F 24.8 °F 88% 30.13 in 5.0 mi ESE 6.9 mph - N/A   Overcast
4:15 AM 28.2 °F 20.2 °F 25.2 °F 88% 30.12 in 5.0 mi ESE 8.1 mph - N/A   Overcast
4:35 AM 28.4 °F 21.2 °F 25.3 °F 88% 30.12 in 5.0 mi ESE 6.9 mph - N/A   Overcast
4:55 AM 28.6 °F 20.7 °F 25.3 °F 88% 30.11 in 5.0 mi ESE 8.1 mph - N/A   Overcast
5:15 AM 28.6 °F 19.9 °F 25.3 °F 88% 30.12 in 5.0 mi ESE 9.2 mph - N/A   Mostly Cloudy
5:35 AM 28.4 °F 22.2 °F 25.5 °F 89% 30.13 in 5.0 mi ESE 5.8 mph - N/A   Overcast
5:55 AM 28.4 °F 21.2 °F 25.5 °F 89% 30.12 in 5.0 mi ESE 6.9 mph - N/A   Overcast
6:15 AM 28.4 °F 23.3 °F 25.5 °F 89% 30.12 in 5.0 mi ESE 4.6 mph - N/A   Overcast
6:35 AM 28.9 °F 22.8 °F 25.7 °F 88% 30.11 in 5.0 mi SE 5.8 mph - N/A   Overcast
6:55 AM 29.1 °F 25.4 °F 25.7 °F 87% 30.11 in 5.0 mi SE 3.5 mph - N/A   Overcast
7:15 AM 29.3 °F 23.2 °F 26.1 °F 88% 30.10 in 5.0 mi SE 5.8 mph - N/A   Overcast
7:35 AM 29.7 °F 22.0 °F 26.1 °F 86% 30.09 in 5.0 mi SE 8.1 mph - N/A   Overcast
7:55 AM 30.0 °F 22.4 °F 26.2 °F 86% 30.08 in 5.0 mi SE 8.1 mph - N/A   Overcast
8:15 AM 30.2 °F 22.6 °F 26.6 °F 86% 30.08 in 5.0 mi SE 8.1 mph - N/A   Overcast
8:35 AM 30.2 °F 23.4 °F 26.4 °F 86% 30.09 in 5.0 mi SE 6.9 mph - N/A   Overcast
8:55 AM 30.6 °F 22.4 °F 26.6 °F 85% 30.07 in 5.0 mi SE 9.2 mph - N/A Snow Light Snow
9:15 AM 30.7 °F 23.3 °F 26.6 °F 85% 30.07 in 4.0 mi SE 8.1 mph - N/A   Overcast
9:35 AM 31.1 °F 23.1 °F 26.6 °F 83% 30.04 in 4.0 mi SE 9.2 mph - N/A   Overcast
9:55 AM 31.6 °F 23.7 °F 26.8 °F 82% 30.04 in 4.0 mi SE 9.2 mph - N/A   Mostly Cloudy
10:15 AM 32.2 °F 24.4 °F 27.1 °F 82% 30.03 in 4.0 mi SE 9.2 mph - N/A   Haze
10:35 AM 33.8 °F 27.7 °F 27.1 °F 77% 30.03 in 4.0 mi SE 6.9 mph - N/A   Haze
10:55 AM 34.7 °F 29.6 °F 27.1 °F 74% 30.03 in 5.0 mi SE 5.8 mph - N/A   Haze
11:15 AM 35.6 °F 28.6 °F 27.3 °F 72% 30.01 in 5.0 mi SE 9.2 mph - N/A   Haze
11:35 AM 35.6 °F 29.2 °F 27.3 °F 72% 30.01 in 5.0 mi ESE 8.1 mph - N/A   Haze
11:55 AM 36.1 °F 31.4 °F 27.9 °F 72% 30.00 in 5.0 mi ESE 5.8 mph - N/A   Haze
12:15 PM 36.7 °F 32.9 °F 28.0 °F 71% 29.98 in 5.0 mi ESE 4.6 mph - N/A   Haze
12:35 PM 37.4 °F 33.8 °F 28.6 °F 70% 29.97 in 5.0 mi ESE 4.6 mph - N/A   Haze
12:55 PM 37.9 °F 33.5 °F 28.2 °F 68% 29.95 in 5.0 mi ESE 5.8 mph - N/A   Haze
1:15 PM 38.3 °F 33.2 °F 28.8 °F 69% 29.94 in 5.0 mi ESE 6.9 mph - N/A   Haze
1:35 PM 37.8 °F 33.3 °F 29.1 °F 71% 29.93 in 5.0 mi East 5.8 mph - N/A   Haze
1:55 PM 37.9 °F 32.7 °F 28.9 °F 70% 29.92 in 5.0 mi East 6.9 mph - N/A   Haze
2:15 PM 38.1 °F 32.9 °F 29.3 °F 71% 29.91 in 5.0 mi East 6.9 mph - N/A   Haze
2:35 PM 37.8 °F 31.8 °F 29.3 °F 72% 29.90 in 5.0 mi East 8.1 mph - N/A   Haze
2:55 PM 37.8 °F 31.8 °F 29.3 °F 72% 29.89 in 5.0 mi East 8.1 mph - N/A   Haze
3:15 PM 37.6 °F 31.0 °F 29.3 °F 72% 29.87 in 5.0 mi East 9.2 mph - N/A   Haze
3:35 PM 37.6 °F 32.3 °F 29.3 °F 72% 29.87 in 5.0 mi East 6.9 mph - N/A   Haze
3:55 PM 37.0 °F 31.6 °F 29.8 °F 75% 29.86 in 5.0 mi East 6.9 mph - N/A   Haze
4:15 PM 36.7 °F 31.2 °F 30.0 °F 77% 29.85 in 5.0 mi East 6.9 mph - N/A   Haze
4:35 PM 36.5 °F 30.3 °F 30.2 °F 78% 29.85 in 5.0 mi East 8.1 mph - N/A   Haze
4:55 PM 36.1 °F 31.4 °F 31.1 °F 82% 29.84 in 7.0 mi East 5.8 mph - N/A   Drizzle
5:35 PM 35.4 °F 32.6 °F 32.0 °F 87% 29.84 in 4.0 mi ENE 3.5 mph - N/A   Drizzle
6:15 PM 35.6 °F 31.7 °F 32.4 °F 88% 29.84 in 3.0 mi NE 4.6 mph - N/A Rain Light Rain
6:35 PM 34.7 °F 29.6 °F 32.0 °F 90% 29.84 in 3.0 mi NNE 5.8 mph - 0.01 in Rain Light Rain
6:55 PM 34.0 °F 28.8 °F 32.2 °F 93% 29.85 in 3.0 mi NE 5.8 mph - 0.02 in Rain Rain
7:15 PM 34.7 °F 28.8 °F 32.9 °F 93% 29.84 in 3.0 mi ENE 6.9 mph - 0.01 in Rain Light Rain
7:35 PM 34.0 °F 31.0 °F 32.0 °F 92% 29.83 in 3.0 mi ENE 3.5 mph - 0.03 in Rain Rain
7:55 PM 33.8 °F 27.7 °F 32.0 °F 93% 29.82 in 2.5 mi ENE 6.9 mph - 0.03 in   Drizzle
8:15 PM 33.8 °F 28.6 °F 32.4 °F 94% 29.82 in 2.5 mi NE 5.8 mph - N/A   Drizzle
8:35 PM 33.3 °F 27.9 °F 32.2 °F 96% 29.82 in 1.8 mi North 5.8 mph - 0.01 in Rain Heavy Rain
8:55 PM 33.3 °F 27.9 °F 32.5 °F 97% 29.83 in 2.0 mi NNW 5.8 mph - 0.01 in Rain Light Rain
9:15 PM 33.1 °F 26.9 °F 32.4 °F 97% 29.83 in 1.5 mi NNW 6.9 mph - N/A Rain Light Rain
9:35 PM 32.5 °F 28.1 °F 32.0 °F 98% 29.82 in 1.8 mi North 4.6 mph - N/A   Light Drizzle
9:55 PM 32.5 °F 28.1 °F 32.2 °F 99% 29.82 in 1.8 mi North 4.6 mph - N/A   Overcast
10:15 PM 32.4 °F 26.9 °F 32.0 °F 99% 29.83 in 1.5 mi NW 5.8 mph - N/A   Overcast
10:35 PM 32.4 °F 26.0 °F 32.2 °F 99% 29.83 in 1.5 mi NW 6.9 mph - N/A   Overcast
10:55 PM 32.2 °F 25.8 °F 32.0 °F 99% 29.84 in 1.2 mi NW 6.9 mph - N/A   Overcast
11:15 PM 32.2 °F 24.4 °F 32.0 °F 99% 29.85 in 0.8 mi NW 9.2 mph - N/A   Overcast
11:35 PM 32.2 °F 25.0 °F 32.0 °F 99% 29.85 in 1.2 mi NW 8.1 mph - N/A Snow Light Snow
11:55 PM 32.4 °F 23.5 °F 32.4 °F 100% 29.86 in 2.5 mi NW 11.5 mph 17.3 mph N/A Snow Light Snow